COSMOS 1867 COOLANT

Satellite information

Favourite Embed

Satellite Type and Status

DEBRISIN ORBIT

Key statistics

Satellite COSMOS 1867 COOLANT at a glance.

Uptime

13938

Days in orbit

Revolutions

≈ 14.3

Per day

Orbit

LEO

Low Earth Orbit

Inclination

65.0

Latest

Satellite identification and parameters

Extended collection of information and parameters for COSMOS 1867 COOLANT.

Object identification

Identified? True

Debris? False

Object name: COSMOS 1867 COOLANT

International designator: 1987-060Z

Object number (NORAD): 39662

Object ID (CCSDS): 39662

Country: COMMONWEALTH OF INDEPENDENT STATES (CIS)

Current information (Y/N): Y

RCS size: SMALL

Orbital parameters

Period: 100.402 minutes

Inclination: 65.007 deg

SMA: 7155.755 km

Apoapsis: 788.22 km

Periapsis: 767.02 km

RAAN: 96.9356 deg

Eccentricy: 0.00148135

Argument of periapsis: 258.6301 deg

Mean anomaly: 101.3121 deg

Mean motion: 14.34232533 rev/day

Mean motion (dot): 0.00000807 rev/day2

B* drag term: 0.00032277175 1/REarth

Two-line elements (TLE)

Creation date: Sept. 2, 2025, 3:25 a.m.

Reference frame: TEME

Reference center: EARTH

Epoch: Sept. 1, 2025, 9:10 p.m. UTC

TLE line 0: 0 COSMOS 1867 COOLANT

TLE line 1: 1 39662U 87060Z 25244.88245504 .00000807 00000-0 32277-3 0 9999

TLE line 2: 2 39662 65.0070 96.9356 0014814 258.6301 101.3121 14.34232533594149

Live tracking on map

Real-time ground track for satellite COSMOS 1867 COOLANT.

In-orbit conjunctions

A list of the most updated potential collisions computed for object COSMOS 1867 COOLANT.

Target Orbit TCA Probability of collision Miss distance Type
SL-8 DEB LEO 2025-02-09 07:53:20 0.000334345 187.0 (m) DEBRIS

Associated space launch

Nuclear-powered magnetospheric research satellite

COSMOS 1867 COOLANT was lifted into orbit during the mission ‘Tsiklon-2 | Plasma-A 2’, on board a Tsiklon-2 space rocket.

The launch took place on July 10, 1987, 3:35 p.m. from 90.

For more information about the launch, click the button.

Launch to space Tsiklon-2 | Plasma-A 2
Tsiklon-2 | Plasma-A 2

Agency: N/A

Status: Launch Successful

Launch date: July 10, 1987, 3:35 p.m. UTC

Rocket: Tsiklon-2

Launch pad: 90

Location: Baikonur Cosmodrome, Republic of Kazakhstan

...

Latest news about this satellite

There are no fresh news available about this satellite. Check back as we update our databases every day.


Newsletter sign-up

Weekly statistics, charts and insights to help you stay on top of the space industry.